| time (UTC) | temp F | wind direction | speed MPH | gust MPH | rain 1hr in | rain 24hr in | rain mn in | humidity % | barometer mb |
| 20260502231334 | 54 | 311 | 0.0 | 2.0 | 0.00 | 0.49 | 0.00 | 97 | 1014.7 |
| 20260502230833 | 54 | 311 | 0.0 | 0.0 | 0.00 | 0.49 | 0.00 | 97 | 1014.8 |
| 20260502230334 | 55 | 311 | 0.0 | 2.0 | 0.00 | 0.49 | 0.00 | 98 | 1014.8 |
| 20260502224833 | 55 | 311 | 0.0 | 3.0 | 0.00 | 0.49 | 0.00 | 97 | 1014.9 |
| 20260502224333 | 54 | 309 | 0.0 | 0.0 | 0.00 | 0.49 | 0.00 | 97 | 1014.9 |
| 20260502223833 | 54 | 309 | 0.0 | 1.0 | 0.00 | 0.49 | 0.00 | 97 | 1014.9 |
| 20260502222834 | 55 | 79 | 0.0 | 2.0 | 0.00 | 0.49 | 0.00 | 97 | 1014.9 |
| 20260502222333 | 55 | 77 | 0.0 | 0.0 | 0.00 | 0.49 | 0.00 | 97 | 1015.0 |
| 20260502221833 | 55 | 77 | 0.0 | 0.0 | 0.00 | 0.49 | 0.00 | 97 | 1015.0 |
| 20260502221333 | 55 | 77 | 0.0 | 0.0 | 0.00 | 0.49 | 0.00 | 97 | 1015.0 |
| 20260502220833 | 55 | 77 | 1.0 | 2.0 | 0.00 | 0.49 | 0.00 | 97 | 1015.1 |
| 20260502215836 | 56 | 77 | 2.0 | 2.0 | 0.00 | 0.49 | 0.00 | 97 | 1015.1 |
| 20260502214334 | 56 | 79 | 2.0 | 5.0 | 0.00 | 0.49 | 0.49 | 97 | 1015.2 |
| 20260502213833 | 56 | 59 | 2.0 | 5.0 | 0.00 | 0.49 | 0.49 | 97 | 1015.3 |
| 20260502213334 | 56 | 76 | 2.0 | 3.0 | 0.00 | 0.49 | 0.49 | 97 | 1015.3 |
| 20260502212835 | 56 | 68 | 2.0 | 3.0 | 0.00 | 0.49 | 0.49 | 97 | 1015.3 |
| 20260502212334 | 57 | 52 | 2.0 | 5.0 | 0.00 | 0.49 | 0.49 | 97 | 1015.3 |
| 20260502210833 | 57 | 85 | 1.0 | 2.0 | 0.00 | 0.49 | 0.49 | 97 | 1015.3 |
| 20260502204833 | 57 | 69 | 0.0 | 0.0 | 0.00 | 0.49 | 0.49 | 97 | 1015.4 |
| 20260502204333 | 57 | 69 | 0.0 | 0.0 | 0.00 | 0.49 | 0.49 | 97 | 1015.4 |
| 20260502203333 | 57 | 69 | 0.0 | 0.0 | 0.00 | 0.49 | 0.49 | 97 | 1015.5 |
| 20260502202333 | 57 | 70 | 0.0 | 2.0 | 0.00 | 0.49 | 0.49 | 97 | 1015.6 |
| 20260502200333 | 58 | 70 | 0.0 | 3.0 | 0.00 | 0.49 | 0.49 | 96 | 1015.6 |
| 20260502195834 | 58 | 187 | 1.0 | 2.0 | 0.00 | 0.49 | 0.49 | 96 | 1015.6 |
| 20260502195332 | 58 | 187 | 1.0 | 1.0 | 0.00 | 0.49 | 0.49 | 96 | 1015.7 |
| 20260502192334 | 59 | 274 | 0.0 | 0.0 | 0.00 | 0.49 | 0.49 | 96 | 1015.7 |
| 20260502191833 | 59 | 274 | 2.0 | 1.0 | 0.00 | 0.49 | 0.49 | 96 | 1015.7 |
| 20260502190333 | 59 | 34 | 0.0 | 0.0 | 0.00 | 0.49 | 0.49 | 96 | 1015.7 |
| 20260502185333 | 59 | 35 | 0.0 | 3.0 | 0.00 | 0.49 | 0.49 | 96 | 1015.8 |
| 20260502183833 | 59 | 85 | 0.0 | 3.0 | 0.02 | 0.49 | 0.49 | 95 | 1016.0 |
| 20260502182333 | 60 | 314 | 0.0 | 0.0 | 0.02 | 0.49 | 0.49 | 95 | 1016.0 |
| 20260502181334 | 60 | 314 | 0.0 | 0.0 | 0.02 | 0.49 | 0.49 | 95 | 1016.0 |
| 20260502180333 | 60 | 353 | 0.0 | 2.0 | 0.02 | 0.49 | 0.49 | 95 | 1015.8 |
| 20260502170333 | 60 | 91 | 1.0 | 2.0 | 0.41 | 0.47 | 0.47 | 90 | 1016.1 |
| 20260502164333 | 63 | 10 | 8.0 | 30.0 | 0.39 | 0.43 | 0.43 | 80 | 1017.9 |
| 20260502163333 | 69 | 154 | 0.0 | 6.0 | 0.04 | 0.08 | 0.08 | 82 | 1015.4 |
| 20260502162836 | 69 | 93 | 2.0 | 2.0 | 0.04 | 0.08 | 0.08 | 82 | 1015.4 |
| 20260502161333 | 71 | 95 | 2.0 | 6.0 | 0.04 | 0.08 | 0.08 | 75 | 1015.9 |
| 20260502160833 | 72 | 60 | 2.0 | 9.0 | 0.04 | 0.08 | 0.08 | 68 | 1016.1 |
| 20260502152333 | 74 | 10 | 3.0 | 5.0 | 0.00 | 0.04 | 0.04 | 50 | 1016.6 |
| 20260502151334 | 74 | 322 | 5.0 | 7.0 | 0.00 | 0.04 | 0.04 | 52 | 1016.6 |
| 20260502150833 | 74 | 292 | 3.0 | 12.0 | 0.00 | 0.04 | 0.04 | 52 | 1016.6 |
| 20260502150332 | 74 | 239 | 2.0 | 14.0 | 0.00 | 0.04 | 0.04 | 56 | 1016.6 |
| 20260502115834 | 68 | 62 | 1.0 | 3.0 | 0.04 | 0.04 | 0.04 | 82 | 1018.9 |
| 20260502115333 | 68 | 62 | 1.0 | 5.0 | 0.04 | 0.04 | 0.04 | 82 | 1019.1 |
| 20260502114832 | 68 | 64 | 2.0 | 5.0 | 0.04 | 0.04 | 0.04 | 82 | 1019.1 |
| 20260502113833 | 68 | 194 | 3.0 | 5.0 | 0.04 | 0.04 | 0.04 | 77 | 1019.3 |
| 20260502113333 | 68 | 254 | 3.0 | 6.0 | 0.04 | 0.04 | 0.04 | 72 | 1019.3 |
| 20260502112834 | 69 | 277 | 5.0 | 6.0 | 0.04 | 0.04 | 0.04 | 72 | 1019.3 |
| 20260502112333 | 70 | 293 | 6.0 | 7.0 | 0.04 | 0.04 | 0.04 | 66 | 1019.2 |
| 20260502111834 | 72 | 284 | 5.0 | 10.0 | 0.03 | 0.03 | 0.03 | 61 | 1019.2 |
| 20260502111333 | 73 | 268 | 5.0 | 17.0 | 0.02 | 0.02 | 0.02 | 58 | 1019.2 |
| 20260502110832 | 74 | 275 | 3.0 | 9.0 | 0.00 | 0.00 | 0.00 | 50 | 1019.1 |
| 20260502110334 | 74 | 295 | 3.0 | 6.0 | 0.00 | 0.00 | 0.00 | 48 | 1019.1 |
| 20260502105834 | 74 | 227 | 4.0 | 7.0 | 0.00 | 0.00 | 0.00 | 49 | 1019.1 |
| 20260502105333 | 74 | 256 | 5.0 | 6.0 | 0.00 | 0.00 | 0.00 | 48 | 1019.4 |
| 20260502104833 | 74 | 186 | 6.0 | 8.0 | 0.00 | 0.00 | 0.00 | 51 | 1019.4 |
| 20260502103333 | 73 | 175 | 8.0 | 13.0 | 0.00 | 0.00 | 0.00 | 50 | 1019.7 |
| 20260502102333 | 73 | 193 | 6.0 | 16.0 | 0.00 | 0.00 | 0.00 | 51 | 1019.9 |
| 20260502100833 | 72 | 192 | 6.0 | 13.0 | 0.00 | 0.00 | 0.00 | 51 | 1020.0 |
| 20260502091333 | 70 | 243 | 7.0 | 9.0 | 0.00 | 0.00 | 0.00 | 56 | 1020.3 |
| 20260502090832 | 69 | 201 | 6.0 | 10.0 | 0.00 | 0.00 | 0.00 | 57 | 1020.3 |
| 20260502090332 | 69 | 219 | 6.0 | 12.0 | 0.00 | 0.00 | 0.00 | 55 | 1020.3 |
| 20260502071333 | 65 | 242 | 5.0 | 8.0 | 0.00 | 0.00 | 0.00 | 56 | 1020.5 |
| 20260502065332 | 65 | 154 | 5.0 | 8.0 | 0.00 | 0.00 | 0.00 | 55 | 1020.8 |
| 20260502064832 | 65 | 177 | 5.0 | 8.0 | 0.00 | 0.00 | 0.00 | 55 | 1020.8 |
| 20260502064333 | 65 | 165 | 5.0 | 9.0 | 0.00 | 0.00 | 0.00 | 55 | 1020.8 |
| 20260502063333 | 64 | 168 | 5.0 | 7.0 | 0.00 | 0.00 | 0.00 | 54 | 1020.9 |
| 20260502061832 | 63 | 183 | 5.0 | 8.0 | 0.00 | 0.00 | 0.00 | 54 | 1021.0 |
| 20260502054832 | 62 | 164 | 3.0 | 8.0 | 0.00 | 0.00 | 0.00 | 54 | 1020.9 |
| 20260502054333 | 62 | 195 | 3.0 | 7.0 | 0.00 | 0.00 | 0.00 | 52 | 1020.9 |
| 20260502051832 | 61 | 184 | 5.0 | 9.0 | 0.00 | 0.00 | 0.00 | 46 | 1020.9 |
| 20260502051333 | 61 | 189 | 5.0 | 7.0 | 0.00 | 0.00 | 0.00 | 46 | 1020.9 |
| 20260502050833 | 61 | 171 | 3.0 | 6.0 | 0.00 | 0.00 | 0.00 | 46 | 1020.8 |
| 20260502044333 | 60 | 188 | 3.0 | 7.0 | 0.00 | 0.00 | 0.00 | 48 | 1020.8 |
| 20260502043833 | 60 | 185 | 4.0 | 8.0 | 0.00 | 0.00 | 0.00 | 48 | 1020.6 |
| 20260502035332 | 60 | 169 | 5.0 | 8.0 | 0.00 | 0.00 | 0.00 | 45 | 1021.0 |
| 20260502033839 | 55 | 198 | 2.0 | 9.0 | 0.00 | 0.00 | 0.00 | 60 | 1020.7 |
| 20260502032834 | 48 | 252 | 1.0 | 5.0 | 0.00 | 0.00 | 0.00 | 80 | 1020.7 |
| 20260502032332 | 47 | 24 | 0.0 | 3.0 | 0.00 | 0.00 | 0.00 | 81 | 1020.7 |
| 20260502031832 | 47 | 339 | 0.0 | 2.0 | 0.00 | 0.00 | 0.00 | 81 | 1020.7 |
| 20260502031332 | 46 | 339 | 0.0 | 2.0 | 0.00 | 0.00 | 0.00 | 81 | 1020.7 |
| 20260502025332 | 45 | 339 | 0.0 | 0.0 | 0.00 | 0.00 | 0.00 | 83 | 1021.0 |
| 20260502024333 | 45 | 340 | 1.0 | 2.0 | 0.00 | 0.00 | 0.00 | 85 | 1021.0 |
| 20260502022332 | 43 | 346 | 0.0 | 2.0 | 0.00 | 0.00 | 0.00 | 85 | 1021.1 |
| 20260502020832 | 43 | 346 | 0.0 | 0.0 | 0.00 | 0.00 | 0.00 | 85 | 1021.1 |
| 20260502015833 | 43 | 346 | 1.0 | 2.0 | 0.00 | 0.00 | 0.00 | 86 | 1021.1 |
| 20260502015333 | 43 | 346 | 1.0 | 2.0 | 0.00 | 0.00 | 0.00 | 87 | 1021.4 |
| 20260502014333 | 42 | 352 | 0.0 | 5.0 | 0.00 | 0.00 | 0.00 | 88 | 1021.4 |
| 20260502012332 | 41 | 28 | 0.0 | 2.0 | 0.00 | 0.00 | 0.00 | 88 | 1021.5 |
| 20260502011832 | 41 | 28 | 0.0 | 2.0 | 0.00 | 0.00 | 0.00 | 89 | 1021.5 |
| 20260502011333 | 41 | 326 | 0.0 | 3.0 | 0.00 | 0.00 | 0.00 | 88 | 1021.5 |
| 20260502005337 | 39 | 224 | 0.0 | 0.0 | 0.00 | 0.00 | 0.00 | 86 | 1021.6 |
| 20260502004836 | 40 | 224 | 0.0 | 0.0 | 0.00 | 0.00 | 0.00 | 86 | 1021.6 |
| 20260502003832 | 39 | 224 | 0.0 | 0.0 | 0.00 | 0.00 | 0.00 | 86 | 1021.7 |
| 20260502003332 | 40 | 223 | 0.0 | 0.0 | 0.00 | 0.00 | 0.00 | 85 | 1021.7 |
| 20260502002332 | 40 | 223 | 0.0 | 0.0 | 0.00 | 0.00 | 0.00 | 84 | 1021.8 |
| 20260502001833 | 40 | 224 | 0.0 | 2.0 | 0.00 | 0.00 | 0.00 | 84 | 1021.8 |
| 20260502001332 | 40 | 136 | 0.0 | 0.0 | 0.00 | 0.00 | 0.00 | 83 | 1021.8 |
| 20260501235834 | 40 | 136 | 0.0 | 2.0 | 0.00 | 0.00 | 0.00 | 83 | 1022.0 |
| 20260501234832 | 40 | 136 | 0.0 | 2.0 | 0.00 | 0.00 | 0.00 | 82 | 1022.2 |
| 20260501234333 | 40 | 136 | 0.0 | 2.0 | 0.00 | 0.00 | 0.00 | 81 | 1022.2 |
| 20260501233332 | 41 | 135 | 0.0 | 1.0 | 0.00 | 0.00 | 0.00 | 79 | 1022.5 |
| 20260501232332 | 42 | 135 | 0.0 | 0.0 | 0.00 | 0.00 | 0.00 | 79 | 1022.7 |